| time (UTC) | temp F | wind direction | speed MPH | gust MPH | rain 1hr in | rain 24hr in | rain mn in | humidity % | barometer mb |
| 20260905185538 | 49 | 269 | 5.0 | 8.0 | 0.00 | 0.00 | 0.00 | 71 | 1013.6 |
| 20260905184523 | 49 | 309 | 5.0 | 10.0 | 0.00 | 0.00 | 0.00 | 71 | 1013.4 |
| 20260905183537 | 49 | 280 | 4.0 | 8.0 | 0.00 | 0.00 | 0.00 | 72 | 1013.2 |
| 20260905182517 | 48 | 234 | 5.0 | 10.0 | 0.00 | 0.00 | 0.00 | 75 | 1013.1 |
| 20260905181525 | 48 | 278 | 3.0 | 7.0 | 0.00 | 0.00 | 0.00 | 76 | 1013.0 |
| 20260905180534 | 49 | 303 | 4.0 | 8.0 | 0.00 | 0.00 | 0.00 | 75 | 1013.0 |
| 20260905175522 | 49 | 237 | 5.0 | 7.0 | 0.00 | 0.00 | 0.00 | 72 | 1012.7 |
| 20260905174531 | 49 | 277 | 3.0 | 7.0 | 0.00 | 0.00 | 0.00 | 71 | 1012.7 |
| 20260905173519 | 49 | 223 | 4.0 | 9.0 | 0.00 | 0.00 | 0.00 | 70 | 1012.6 |
| 20260905172527 | 49 | 243 | 3.0 | 8.0 | 0.00 | 0.00 | 0.00 | 71 | 1012.4 |
| 20260905171536 | 49 | 251 | 6.0 | 12.0 | 0.00 | 0.00 | 0.00 | 71 | 1012.1 |
| 20260905170525 | 49 | 263 | 10.0 | 17.0 | 0.00 | 0.00 | 0.00 | 71 | 1011.6 |
| 20260905165533 | 49 | 265 | 9.0 | 15.0 | 0.00 | 0.00 | 0.00 | 73 | 1011.2 |
| 20260905164521 | 49 | 278 | 10.0 | 21.0 | 0.00 | 0.00 | 0.00 | 73 | 1011.1 |
| 20260905163537 | 49 | 267 | 8.0 | 14.0 | 0.00 | 0.00 | 0.00 | 75 | 1011.3 |
| 20260905162517 | 49 | 293 | 6.0 | 13.0 | 0.00 | 0.00 | 0.00 | 74 | 1011.6 |
| 20260905161523 | 49 | 278 | 6.0 | 11.0 | 0.00 | 0.00 | 0.00 | 74 | 1012.0 |
| 20260905160530 | 49 | 290 | 7.0 | 12.0 | 0.00 | 0.00 | 0.00 | 74 | 1011.9 |
| 20260905155517 | 49 | 277 | 5.0 | 9.0 | 0.00 | 0.00 | 0.00 | 72 | 1012.0 |
| 20260905154523 | 49 | 274 | 7.0 | 15.0 | 0.00 | 0.00 | 0.00 | 71 | 1011.6 |
| 20260905153529 | 49 | 282 | 8.0 | 17.0 | 0.00 | 0.00 | 0.00 | 71 | 1011.4 |
| 20260905152535 | 50 | 272 | 7.0 | 13.0 | 0.00 | 0.00 | 0.00 | 71 | 1011.8 |
| 20260905151521 | 50 | 258 | 8.0 | 16.0 | 0.00 | 0.00 | 0.00 | 72 | 1011.8 |
| 20260905150528 | 50 | 254 | 8.0 | 17.0 | 0.00 | 0.00 | 0.00 | 73 | 1011.8 |
| 20260905145516 | 50 | 254 | 8.0 | 14.0 | 0.00 | 0.00 | 0.00 | 71 | 1011.6 |
| 20260905144525 | 50 | 254 | 8.0 | 15.0 | 0.00 | 0.00 | 0.00 | 70 | 1011.7 |
| 20260905143533 | 50 | 254 | 6.0 | 11.0 | 0.00 | 0.00 | 0.00 | 71 | 1011.5 |
| 20260905142519 | 50 | 259 | 8.0 | 15.0 | 0.00 | 0.00 | 0.00 | 72 | 1011.3 |
| 20260905141524 | 50 | 257 | 10.0 | 18.0 | 0.00 | 0.00 | 0.00 | 72 | 1011.4 |
| 20260905140531 | 51 | 259 | 8.0 | 16.0 | 0.00 | 0.00 | 0.00 | 70 | 1011.4 |
| 20260905135536 | 51 | 273 | 6.0 | 13.0 | 0.00 | 0.00 | 0.00 | 70 | 1011.1 |
| 20260905134521 | 51 | 256 | 5.0 | 13.0 | 0.00 | 0.00 | 0.00 | 71 | 1011.2 |
| 20260905133530 | 50 | 262 | 6.0 | 10.0 | 0.00 | 0.00 | 0.00 | 72 | 1011.4 |
| 20260905132544 | 50 | 248 | 6.0 | 11.0 | 0.00 | 0.00 | 0.00 | 74 | 1011.3 |
| 20260905131522 | 50 | 248 | 6.0 | 12.0 | 0.00 | 0.00 | 0.00 | 73 | 1011.2 |
| 20260905130528 | 50 | 249 | 5.0 | 8.0 | 0.00 | 0.00 | 0.00 | 75 | 1011.0 |
| 20260905125535 | 50 | 254 | 5.0 | 9.0 | 0.00 | 0.00 | 0.00 | 80 | 1011.4 |
| 20260905124522 | 50 | 248 | 6.0 | 11.0 | 0.00 | 0.00 | 0.00 | 82 | 1011.5 |
| 20260905123529 | 52 | 254 | 10.0 | 20.0 | 0.00 | 0.00 | 0.00 | 75 | 1011.2 |
| 20260905122536 | 53 | 257 | 7.0 | 13.0 | 0.00 | 0.00 | 0.00 | 70 | 1010.8 |
| 20260905121521 | 53 | 268 | 6.0 | 10.0 | 0.00 | 0.00 | 0.00 | 69 | 1010.8 |
| 20260905120528 | 53 | 293 | 6.0 | 13.0 | 0.00 | 0.00 | 0.00 | 70 | 1010.8 |
| 20260905115534 | 53 | 283 | 6.0 | 12.0 | 0.00 | 0.00 | 0.00 | 68 | 1010.6 |
| 20260905114518 | 53 | 288 | 4.0 | 12.0 | 0.00 | 0.00 | 0.00 | 68 | 1010.8 |
| 20260905113531 | 54 | 279 | 6.0 | 10.0 | 0.00 | 0.00 | 0.00 | 66 | 1010.9 |
| 20260905112531 | 54 | 276 | 8.0 | 14.0 | 0.00 | 0.00 | 0.00 | 64 | 1011.0 |
| 20260905111517 | 54 | 266 | 7.0 | 17.0 | 0.00 | 0.00 | 0.00 | 66 | 1011.2 |
| 20260905110523 | 54 | 267 | 7.0 | 11.0 | 0.00 | 0.00 | 0.00 | 66 | 1011.3 |
| 20260905105530 | 55 | 263 | 10.0 | 19.0 | 0.00 | 0.00 | 0.00 | 64 | 1011.1 |
| 20260905104517 | 55 | 278 | 8.0 | 22.0 | 0.00 | 0.00 | 0.00 | 65 | 1011.1 |
| 20260905103530 | 55 | 250 | 7.0 | 13.0 | 0.00 | 0.00 | 0.00 | 65 | 1011.1 |
| 20260905102529 | 55 | 260 | 7.0 | 17.0 | 0.00 | 0.00 | 0.00 | 65 | 1010.8 |
| 20260905101534 | 56 | 260 | 7.0 | 22.0 | 0.00 | 0.00 | 0.00 | 66 | 1010.7 |
| 20260905100522 | 56 | 241 | 9.0 | 18.0 | 0.00 | 0.00 | 0.00 | 68 | 1010.5 |
| 20260905095528 | 56 | 264 | 7.0 | 12.0 | 0.00 | 0.00 | 0.00 | 67 | 1010.4 |
| 20260905094534 | 56 | 281 | 7.0 | 18.0 | 0.00 | 0.00 | 0.00 | 69 | 1010.2 |
| 20260905093521 | 57 | 265 | 12.0 | 22.0 | 0.00 | 0.00 | 0.00 | 67 | 1009.9 |
| 20260905092534 | 56 | 271 | 7.0 | 17.0 | 0.00 | 0.00 | 0.00 | 69 | 1009.9 |
| 20260905091534 | 56 | 287 | 8.0 | 16.0 | 0.00 | 0.00 | 0.00 | 73 | 1009.8 |
| 20260905090518 | 56 | 267 | 8.0 | 17.0 | 0.00 | 0.00 | 0.00 | 74 | 1009.6 |
| 20260905085524 | 56 | 285 | 8.0 | 23.0 | 0.00 | 0.00 | 0.00 | 75 | 1009.4 |
| 20260905084544 | 56 | 292 | 9.0 | 15.0 | 0.00 | 0.00 | 0.00 | 76 | 1009.4 |
| 20260905083517 | 56 | 280 | 10.0 | 19.0 | 0.00 | 0.00 | 0.00 | 77 | 1009.3 |
| 20260905082530 | 56 | 275 | 8.0 | 17.0 | 0.00 | 0.00 | 0.00 | 78 | 1009.2 |
| 20260905081530 | 56 | 303 | 9.0 | 18.0 | 0.00 | 0.00 | 0.00 | 78 | 1009.2 |
| 20260905080517 | 55 | 302 | 10.0 | 19.0 | 0.00 | 0.00 | 0.00 | 78 | 1008.9 |
| 20260905075529 | 55 | 305 | 9.0 | 16.0 | 0.00 | 0.00 | 0.00 | 78 | 1009.3 |
| 20260905074529 | 55 | 297 | 8.0 | 16.0 | 0.00 | 0.00 | 0.00 | 78 | 1009.1 |
| 20260905073516 | 55 | 304 | 8.0 | 14.0 | 0.00 | 0.00 | 0.00 | 80 | 1008.9 |
| 20260905072522 | 55 | 302 | 8.0 | 20.0 | 0.00 | 0.00 | 0.00 | 82 | 1009.2 |
| 20260905071529 | 55 | 304 | 8.0 | 17.0 | 0.00 | 0.00 | 0.00 | 87 | 1009.1 |
| 20260905070550 | 55 | 283 | 8.0 | 15.0 | 0.00 | 0.00 | 0.00 | 91 | 1009.1 |
| 20260905065520 | 54 | 312 | 8.0 | 18.0 | 0.00 | 0.00 | 0.00 | 95 | 1008.8 |
| 20260905064525 | 54 | 321 | 6.0 | 14.0 | 0.00 | 0.00 | 0.00 | 94 | 1008.7 |
| 20260905063532 | 54 | 316 | 8.0 | 15.0 | 0.00 | 0.00 | 0.00 | 93 | 1008.7 |
| 20260905062517 | 55 | 322 | 7.0 | 20.0 | 0.00 | 0.00 | 0.00 | 91 | 1008.6 |
| 20260905061524 | 55 | 325 | 8.0 | 15.0 | 0.00 | 0.00 | 0.00 | 91 | 1008.7 |
| 20260905060532 | 55 | 331 | 7.0 | 15.0 | 0.00 | 0.00 | 0.00 | 92 | 1008.7 |
| 20260905055518 | 55 | 336 | 6.0 | 13.0 | 0.00 | 0.00 | 0.00 | 91 | 1008.7 |
| 20260905054524 | 54 | 342 | 6.0 | 12.0 | 0.00 | 0.00 | 0.00 | 92 | 1008.7 |
| 20260905053530 | 54 | 345 | 4.0 | 11.0 | 0.00 | 0.00 | 0.00 | 93 | 1008.9 |
| 20260905052537 | 54 | 335 | 3.0 | 11.0 | 0.00 | 0.00 | 0.00 | 94 | 1009.2 |
| 20260905051524 | 53 | 352 | 4.0 | 9.0 | 0.00 | 0.00 | 0.00 | 94 | 1009.3 |
| 20260905050529 | 53 | 351 | 3.0 | 9.0 | 0.00 | 0.00 | 0.00 | 94 | 1009.7 |
| 20260905045516 | 53 | 350 | 4.0 | 10.0 | 0.00 | 0.00 | 0.00 | 94 | 1010.2 |
| 20260905044522 | 53 | 354 | 4.0 | 9.0 | 0.00 | 0.00 | 0.00 | 93 | 1010.1 |
| 20260905043536 | 53 | 338 | 5.0 | 10.0 | 0.00 | 0.00 | 0.00 | 91 | 1010.5 |
| 20260905042534 | 54 | 322 | 7.0 | 17.0 | 0.00 | 0.00 | 0.00 | 91 | 1011.0 |
| 20260905041521 | 54 | 325 | 6.0 | 13.0 | 0.00 | 0.00 | 0.00 | 90 | 1011.4 |
| 20260905040535 | 54 | 294 | 6.0 | 11.0 | 0.00 | 0.00 | 0.00 | 89 | 1011.5 |
| 20260905035543 | 55 | 314 | 7.0 | 15.0 | 0.00 | 0.00 | 0.00 | 86 | 1011.8 |
| 20260905034522 | 55 | 289 | 6.0 | 16.0 | 0.00 | 0.00 | 0.00 | 87 | 1011.8 |
| 20260905033530 | 55 | 277 | 7.0 | 14.0 | 0.00 | 0.00 | 0.00 | 86 | 1011.9 |
| 20260905032534 | 56 | 284 | 8.0 | 19.0 | 0.00 | 0.00 | 0.00 | 84 | 1011.6 |
| 20260905031520 | 57 | 301 | 9.0 | 17.0 | 0.00 | 0.00 | 0.00 | 80 | 1012.0 |
| 20260905030542 | 58 | 312 | 6.0 | 15.0 | 0.00 | 0.00 | 0.00 | 77 | 1011.4 |
| 20260905025540 | 58 | 314 | 9.0 | 16.0 | 0.00 | 0.00 | 0.00 | 79 | 1011.4 |
| 20260905024519 | 58 | 297 | 9.0 | 18.0 | 0.00 | 0.00 | 0.00 | 78 | 1011.6 |
| 20260905023525 | 58 | 286 | 7.0 | 14.0 | 0.00 | 0.00 | 0.00 | 76 | 1011.6 |
| 20260905022520 | 58 | 290 | 6.0 | 10.0 | 0.00 | 0.00 | 0.00 | 83 | 1011.3 |
| 20260905021526 | 58 | 325 | 6.0 | 12.0 | 0.00 | 0.00 | 0.00 | 83 | 1011.3 |
| 20260905020533 | 57 | 332 | 5.0 | 13.0 | 0.00 | 0.00 | 0.00 | 84 | 1011.4 |
| 20260905015518 | 57 | 328 | 5.0 | 9.0 | 0.00 | 0.00 | 0.00 | 86 | 1011.5 |
| 20260905014524 | 57 | 345 | 4.0 | 8.0 | 0.00 | 0.00 | 0.00 | 87 | 1011.5 |
| 20260905013531 | 57 | 334 | 3.0 | 7.0 | 0.00 | 0.00 | 0.00 | 89 | 1011.9 |
| 20260905012535 | 56 | 348 | 3.0 | 7.0 | 0.00 | 0.00 | 0.00 | 90 | 1012.2 |
| 20260905011523 | 56 | 351 | 4.0 | 11.0 | 0.00 | 0.00 | 0.00 | 90 | 1012.1 |
| 20260905010529 | 55 | 335 | 3.0 | 6.0 | 0.00 | 0.00 | 0.00 | 92 | 1012.2 |
| 20260905005535 | 54 | 2 | 2.0 | 5.0 | 0.00 | 0.00 | 0.00 | 92 | 1012.4 |
| 20260905004523 | 54 | 2 | 3.0 | 6.0 | 0.00 | 0.00 | 0.00 | 93 | 1012.5 |
| 20260905003536 | 54 | 7 | 3.0 | 5.0 | 0.00 | 0.00 | 0.00 | 93 | 1012.8 |
| 20260905002517 | 53 | 2 | 3.0 | 8.0 | 0.00 | 0.00 | 0.00 | 92 | 1013.0 |
| 20260905001523 | 54 | 353 | 2.0 | 6.0 | 0.00 | 0.00 | 0.00 | 91 | 1013.5 |
| 20260905000539 | 54 | 346 | 2.0 | 6.0 | 0.00 | 0.00 | 0.00 | 90 | 1013.8 |
| 20260904235517 | 54 | 305 | 3.0 | 6.0 | 0.00 | 0.00 | 0.00 | 90 | 1013.9 |
| 20260904234523 | 54 | 334 | 4.0 | 8.0 | 0.00 | 0.00 | 0.00 | 89 | 1013.8 |
| 20260904233530 | 54 | 347 | 4.0 | 6.0 | 0.00 | 0.00 | 0.00 | 88 | 1013.4 |
| 20260904232536 | 53 | 350 | 3.0 | 6.0 | 0.00 | 0.00 | 0.00 | 90 | 1013.1 |
| 20260904231521 | 53 | 6 | 3.0 | 6.0 | 0.00 | 0.00 | 0.00 | 90 | 1013.6 |
| 20260904230528 | 54 | 360 | 4.0 | 7.0 | 0.00 | 0.00 | 0.00 | 86 | 1013.8 |
| 20260904225535 | 53 | 355 | 3.0 | 5.0 | 0.00 | 0.00 | 0.00 | 87 | 1014.1 |
| 20260904224521 | 53 | 359 | 4.0 | 7.0 | 0.00 | 0.00 | 0.00 | 87 | 1014.0 |
| 20260904223528 | 53 | 3 | 4.0 | 7.0 | 0.00 | 0.00 | 0.00 | 85 | 1014.1 |
| 20260904222534 | 54 | 357 | 3.0 | 6.0 | 0.00 | 0.00 | 0.00 | 82 | 1014.5 |
| 20260904221520 | 56 | 349 | 4.0 | 12.0 | 0.00 | 0.00 | 0.00 | 76 | 1014.6 |
| 20260904220526 | 55 | 351 | 3.0 | 6.0 | 0.00 | 0.00 | 0.00 | 78 | 1014.6 |
| 20260904215532 | 54 | 360 | 4.0 | 7.0 | 0.00 | 0.00 | 0.00 | 79 | 1014.6 |
| 20260904214517 | 53 | 9 | 4.0 | 6.0 | 0.00 | 0.00 | 0.00 | 80 | 1014.5 |
| 20260904213524 | 53 | 7 | 3.0 | 6.0 | 0.00 | 0.00 | 0.00 | 79 | 1014.5 |
| 20260904212537 | 52 | 31 | 2.0 | 4.0 | 0.00 | 0.00 | 0.00 | 80 | 1014.5 |
| 20260904211543 | 51 | 32 | 1.0 | 4.0 | 0.00 | 0.00 | 0.00 | 82 | 1014.4 |
| 20260904210521 | 51 | 38 | 2.0 | 4.0 | 0.00 | 0.00 | 0.00 | 83 | 1014.1 |
| 20260904205535 | 51 | 27 | 2.0 | 6.0 | 0.00 | 0.00 | 0.00 | 83 | 1014.2 |
| 20260904204533 | 50 | 12 | 3.0 | 6.0 | 0.00 | 0.00 | 0.00 | 84 | 1014.6 |
| 20260904203522 | 49 | 12 | 2.0 | 4.0 | 0.00 | 0.00 | 0.00 | 86 | 1014.5 |
| 20260904202527 | 49 | 25 | 2.0 | 5.0 | 0.00 | 0.00 | 0.00 | 87 | 1014.6 |
| 20260904201542 | 49 | 27 | 2.0 | 4.0 | 0.00 | 0.00 | 0.00 | 87 | 1014.4 |
| 20260904200523 | 49 | 33 | 2.0 | 4.0 | 0.00 | 0.00 | 0.00 | 87 | 1014.5 |
| 20260904195532 | 49 | 27 | 2.0 | 4.0 | 0.00 | 0.00 | 0.00 | 88 | 1014.5 |
| 20260904194526 | 49 | 43 | 1.0 | 3.0 | 0.00 | 0.00 | 0.00 | 88 | 1014.8 |
| 20260904193526 | 49 | 43 | 2.0 | 4.0 | 0.00 | 0.00 | 0.00 | 88 | 1015.1 |
| 20260904192542 | 49 | 47 | 2.0 | 4.0 | 0.00 | 0.00 | 0.00 | 88 | 1015.0 |
| 20260904191522 | 50 | 79 | 1.0 | 3.0 | 0.00 | 0.00 | 0.00 | 86 | 1015.2 |
| 20260904190531 | 50 | 341 | 1.0 | 3.0 | 0.00 | 0.00 | 0.00 | 86 | 1015.1 |